Location: Balmoral
(33.0667°S, 151.5833°E)
Time: 17:27:29
(UTC+00:00)

Cosmos 1356 - Pass Details

Date: 18 September 2020
Orbit: 442 x 446 km, 81.1° (Epoch: 24 October)

Event Time Altitude Azimuth Distance (km) Brightness Sun altitude
Rises 18:21:21 0° 3° (N) 2,431 7.0 -18.8°
Reaches altitude 10° 18:23:26 10° 9° (N) 1,569 6.1 -18.3°
Maximum altitude 18:26:46 50° 85° (E) 582 4.3 -17.7°
Drops below altitude 10° 18:30:08 10° 161° (SSE) 1,592 6.5 -17.0°
Sets 18:32:15 0° 166° (SSE) 2,473 7.5 -16.5°
